SAS574 LFPG-ESSA

Flight info

Callsign SAS574
Flight time 2h 6m
Altitude 38000
Route NURMO DCT CMB DCT VEKIN DCT ADUTO N873 VICOT/N0446F390 DCT AMRAK DCT MIKNA N851 PELUP Z226 NILUG
Aircraft A20N/M-SDE2E3FGHIRWXY/LB1

Departure

Time 2026-05-07 15:28
Airport Charles de Gaulle International Airport (LFPG)

Arrival

Time 2026-05-07 17:35
Airport Stockholm-Arlanda Airport (ESSA)
Time Latitude Longitude Altitude Speed Heading
2026-05-07 15:05 49.00548 2.56289 357 ft 1 kts 197°
2026-05-07 15:13 49.00553 2.56291 363 ft 4 kts 197°
2026-05-07 15:14 49.00579 2.56304 366 ft 4 kts 199°
2026-05-07 15:14 49.00604 2.56319 359 ft 4 kts 211°
2026-05-07 15:14 49.00621 2.56344 360 ft 3 kts 259°
2026-05-07 15:14 49.00622 2.56350 359 ft 0 kts 265°
2026-05-07 15:18 49.00622 2.56345 366 ft 3 kts 265°
2026-05-07 15:18 49.00618 2.56260 358 ft 10 kts 265°
2026-05-07 15:19 49.00611 2.56154 357 ft 10 kts 263°
2026-05-07 15:19 49.00596 2.56050 357 ft 12 kts 250°
2026-05-07 15:19 49.00573 2.55924 361 ft 12 kts 260°
2026-05-07 15:19 49.00567 2.55795 363 ft 12 kts 268°
2026-05-07 15:20 49.00560 2.55672 363 ft 12 kts 267°
2026-05-07 15:20 49.00556 2.55547 357 ft 12 kts 267°
2026-05-07 15:20 49.00546 2.55424 360 ft 11 kts 251°
2026-05-07 15:20 49.00499 2.55345 362 ft 9 kts 202°
2026-05-07 15:21 49.00431 2.55335 361 ft 11 kts 173°
2026-05-07 15:21 49.00369 2.55362 357 ft 9 kts 165°
2026-05-07 15:21 49.00307 2.55389 364 ft 10 kts 164°
2026-05-07 15:21 49.00267 2.55406 361 ft 5 kts 163°
2026-05-07 15:22 49.00227 2.55424 357 ft 9 kts 164°
2026-05-07 15:22 49.00152 2.55457 361 ft 15 kts 164°
2026-05-07 15:22 49.00050 2.55500 359 ft 15 kts 170°
2026-05-07 15:22 48.99984 2.55416 362 ft 14 kts 262°
2026-05-07 15:23 48.99976 2.55270 361 ft 14 kts 265°
2026-05-07 15:23 48.99967 2.55122 357 ft 14 kts 265°
2026-05-07 15:23 48.99960 2.54973 357 ft 14 kts 266°
2026-05-07 15:23 48.99936 2.54834 361 ft 13 kts 222°
2026-05-07 15:24 48.99870 2.54872 362 ft 12 kts 109°
2026-05-07 15:24 48.99859 2.54996 357 ft 12 kts 112°
2026-05-07 15:24 48.99793 2.55061 362 ft 12 kts 161°
2026-05-07 15:24 48.99715 2.55090 357 ft 12 kts 165°
2026-05-07 15:25 48.99653 2.55156 361 ft 11 kts 116°
2026-05-07 15:25 48.99618 2.55264 359 ft 12 kts 116°
2026-05-07 15:25 48.99573 2.55368 359 ft 10 kts 90°
2026-05-07 15:25 48.99579 2.55438 356 ft 0 kts 88°
2026-05-07 15:27 48.99580 2.55463 355 ft 14 kts 88°
2026-05-07 15:28 48.99608 2.55995 357 ft 86 kts 85°
2026-05-07 15:28 48.99676 2.57243 355 ft 149 kts 85°
2026-05-07 15:28 48.99764 2.58902 819 ft 157 kts 85°
2026-05-07 15:28 48.99853 2.60590 1487 ft 163 kts 84°
2026-05-07 15:29 48.99937 2.62149 2164 ft 166 kts 84°
2026-05-07 15:29 49.00028 2.63873 3132 ft 165 kts 84°
2026-05-07 15:29 49.00127 2.65714 3726 ft 188 kts 85°
2026-05-07 15:29 49.00242 2.67876 4022 ft 224 kts 85°
2026-05-07 15:30 49.00374 2.70392 4527 ft 251 kts 85°
2026-05-07 15:30 49.00529 2.73106 5373 ft 262 kts 83°
2026-05-07 15:30 49.00945 2.75839 6320 ft 269 kts 70°
2026-05-07 15:30 49.01856 2.78342 7262 ft 275 kts 52°
2026-05-07 15:31 49.03263 2.80349 8246 ft 280 kts 33°
2026-05-07 15:31 49.05041 2.81600 9247 ft 285 kts 14°
2026-05-07 15:31 49.07016 2.81963 10226 ft 289 kts 359°
2026-05-07 15:31 49.09085 2.81857 10780 ft 310 kts 355°
2026-05-07 15:32 49.11322 2.81636 11240 ft 331 kts 355°
2026-05-07 15:32 49.13163 2.81452 11815 ft 340 kts 355°
2026-05-07 15:32 49.14581 2.81317 12328 ft 345 kts 355°
2026-05-07 15:32 49.15404 2.81241 12646 ft 347 kts 355°
2026-05-07 15:33 49.17972 2.81011 13643 ft 353 kts 355°
2026-05-07 15:33 49.20272 2.80811 14453 ft 357 kts 355°
2026-05-07 15:33 49.22771 2.80598 15328 ft 362 kts 355°
2026-05-07 15:33 49.25269 2.80386 16172 ft 366 kts 355°
2026-05-07 15:34 49.27855 2.80168 17053 ft 371 kts 355°
2026-05-07 15:34 49.30419 2.79953 17854 ft 376 kts 355°
2026-05-07 15:34 49.33042 2.79732 18623 ft 380 kts 355°
2026-05-07 15:34 49.35702 2.79508 19330 ft 384 kts 355°
2026-05-07 15:35 49.38388 2.79283 20062 ft 388 kts 355°
2026-05-07 15:35 49.41099 2.79054 20784 ft 392 kts 355°
2026-05-07 15:35 49.43829 2.78824 21496 ft 396 kts 355°
2026-05-07 15:35 49.46594 2.78591 22183 ft 400 kts 355°
2026-05-07 15:36 49.49385 2.78355 22871 ft 404 kts 355°
2026-05-07 15:36 49.52209 2.78116 23529 ft 408 kts 355°
2026-05-07 15:36 49.55049 2.77876 24071 ft 411 kts 355°
2026-05-07 15:36 49.57922 2.77632 24604 ft 415 kts 355°
2026-05-07 15:37 49.60818 2.77386 25130 ft 418 kts 355°
2026-05-07 15:37 49.63692 2.77142 25637 ft 421 kts 354°
2026-05-07 15:37 49.66623 2.76893 26139 ft 424 kts 354°
2026-05-07 15:37 49.69581 2.76641 26636 ft 426 kts 354°
2026-05-07 15:38 49.72548 2.76389 27127 ft 429 kts 354°
2026-05-07 15:38 49.75549 2.76132 27602 ft 432 kts 354°
2026-05-07 15:38 49.78568 2.76062 28064 ft 437 kts
2026-05-07 15:38 49.81602 2.76642 28514 ft 442 kts
2026-05-07 15:39 49.84534 2.78000 28953 ft 448 kts 20°
2026-05-07 15:39 49.87345 2.80142 29375 ft 453 kts 27°
2026-05-07 15:39 49.90111 2.82655 29796 ft 456 kts 29°
2026-05-07 15:39 49.92778 2.85240 30182 ft 459 kts 31°
2026-05-07 15:40 49.95478 2.87933 30521 ft 462 kts 31°
2026-05-07 15:40 49.98178 2.90649 30957 ft 462 kts 31°
2026-05-07 15:40 50.00882 2.93363 31429 ft 461 kts 31°
2026-05-07 15:40 50.03586 2.96064 31895 ft 460 kts 30°
2026-05-07 15:41 50.06280 2.98742 32332 ft 460 kts 30°
2026-05-07 15:41 50.08068 3.00515 32621 ft 459 kts 30°
2026-05-07 15:41 50.11673 3.04084 33182 ft 459 kts 30°
2026-05-07 15:41 50.14364 3.06748 33590 ft 458 kts 30°
2026-05-07 15:42 50.17054 3.09414 34021 ft 458 kts 30°
2026-05-07 15:42 50.19702 3.12042 34363 ft 457 kts 30°
2026-05-07 15:42 50.22424 3.14603 34680 ft 455 kts 25°
2026-05-07 15:42 50.25266 3.16785 34973 ft 455 kts 23°
2026-05-07 15:43 50.28130 3.18880 35261 ft 455 kts 22°
2026-05-07 15:43 50.31017 3.20934 35549 ft 455 kts 22°
2026-05-07 15:43 50.32930 3.22278 35733 ft 455 kts 22°
2026-05-07 15:43 50.35834 3.24306 36004 ft 456 kts 22°
2026-05-07 15:44 50.38729 3.26327 36287 ft 456 kts 22°
2026-05-07 15:44 50.41620 3.28398 36538 ft 457 kts 24°
2026-05-07 15:44 50.45422 3.31294 36863 ft 458 kts 25°
2026-05-07 15:44 50.47347 3.32803 37034 ft 458 kts 25°
2026-05-07 15:45 50.50197 3.35059 37277 ft 459 kts 25°
2026-05-07 15:45 50.53033 3.37231 37512 ft 459 kts 23°
2026-05-07 15:45 50.55942 3.39316 37768 ft 459 kts 22°
2026-05-07 15:45 50.58869 3.41335 37990 ft 459 kts 22°
2026-05-07 15:46 50.67703 3.47339 38066 ft 460 kts 22°
2026-05-07 15:47 50.73574 3.51375 38066 ft 460 kts 22°
2026-05-07 15:47 50.79435 3.55438 38067 ft 460 kts 22°
2026-05-07 15:48 50.85293 3.59517 38065 ft 460 kts 22°
2026-05-07 15:48 50.91150 3.63608 38067 ft 460 kts 22°
2026-05-07 15:49 50.96950 3.67738 38058 ft 460 kts 23°
2026-05-07 15:49 51.02778 3.71938 38056 ft 460 kts 23°
2026-05-07 15:50 51.07546 3.75383 38059 ft 460 kts 23°
2026-05-07 15:50 51.08413 3.76010 38058 ft 460 kts 23°
2026-05-07 15:51 51.14252 3.80233 38047 ft 460 kts 23°
2026-05-07 15:51 51.20056 3.84439 38053 ft 460 kts 23°
2026-05-07 15:52 51.25879 3.88674 38054 ft 460 kts 23°
2026-05-07 15:52 51.31694 3.92927 38050 ft 459 kts 24°
2026-05-07 15:53 51.37498 3.97186 38064 ft 459 kts 24°
2026-05-07 15:53 51.43310 4.01462 38065 ft 459 kts 24°
2026-05-07 15:54 51.48847 4.06521 38064 ft 460 kts 38°
2026-05-07 15:54 51.53667 4.13277 38069 ft 460 kts 42°
2026-05-07 15:55 51.58285 4.20307 38070 ft 460 kts 44°
2026-05-07 15:55 51.62904 4.27456 38073 ft 460 kts 44°
2026-05-07 15:55 51.65218 4.31033 38263 ft 461 kts 43°
2026-05-07 15:56 51.67533 4.34604 38508 ft 461 kts 43°
2026-05-07 15:56 51.69851 4.38174 38740 ft 460 kts 43°
2026-05-07 15:56 51.72166 4.41742 38920 ft 461 kts 43°
2026-05-07 15:56 51.74483 4.45313 39049 ft 462 kts 43°
2026-05-07 15:57 51.76805 4.48899 39069 ft 462 kts 43°
2026-05-07 15:57 51.81447 4.56082 39071 ft 461 kts 44°
2026-05-07 15:58 51.86075 4.63267 39073 ft 461 kts 44°
2026-05-07 15:58 51.90668 4.70419 39067 ft 461 kts 44°
2026-05-07 15:59 51.95208 4.77511 39070 ft 461 kts 44°
2026-05-07 15:59 51.99823 4.84741 39067 ft 460 kts 44°
2026-05-07 16:00 52.04408 4.91946 39065 ft 460 kts 44°
2026-05-07 16:00 52.09000 4.99183 39072 ft 460 kts 44°
2026-05-07 16:01 52.13592 5.06442 39073 ft 460 kts 44°
2026-05-07 16:01 52.18175 5.13709 39075 ft 460 kts 44°
2026-05-07 16:02 52.22754 5.20993 39068 ft 459 kts 44°
2026-05-07 16:02 52.27323 5.28281 39071 ft 459 kts 44°
2026-05-07 16:03 52.31881 5.35577 39073 ft 459 kts 44°
2026-05-07 16:03 52.36407 5.42841 39075 ft 459 kts 44°
2026-05-07 16:04 52.40930 5.50122 39077 ft 459 kts 44°
2026-05-07 16:04 52.45479 5.57468 39075 ft 459 kts 45°
2026-05-07 16:05 52.50019 5.64824 39067 ft 459 kts 45°
2026-05-07 16:05 52.54559 5.72199 39070 ft 459 kts 45°
2026-05-07 16:06 52.59092 5.79587 39072 ft 459 kts 45°
2026-05-07 16:06 52.63619 5.86989 39077 ft 459 kts 45°
2026-05-07 16:07 52.68133 5.94391 39070 ft 457 kts 45°
2026-05-07 16:07 52.72636 6.01799 39071 ft 457 kts 45°
2026-05-07 16:08 52.77137 6.09227 39063 ft 457 kts 45°
2026-05-07 16:08 52.81633 6.16669 39070 ft 457 kts 45°
2026-05-07 16:09 52.86127 6.24131 39073 ft 457 kts 45°
2026-05-07 16:09 52.90580 6.31547 39070 ft 457 kts 45°
2026-05-07 16:10 52.95060 6.39031 39069 ft 457 kts 45°
2026-05-07 16:10 52.99534 6.46529 39072 ft 457 kts 45°
2026-05-07 16:11 53.04011 6.54057 39067 ft 457 kts 45°
2026-05-07 16:11 53.08476 6.61587 39076 ft 457 kts 45°
2026-05-07 16:12 53.12934 6.69129 39074 ft 457 kts 45°
2026-05-07 16:12 53.17356 6.76633 39074 ft 457 kts 45°
2026-05-07 16:13 53.21804 6.84205 39073 ft 457 kts 46°
2026-05-07 16:13 53.26243 6.91786 39074 ft 456 kts 46°
2026-05-07 16:14 53.30679 6.99388 39073 ft 457 kts 46°
2026-05-07 16:14 53.35110 7.07002 39075 ft 456 kts 46°
2026-05-07 16:15 53.39538 7.14637 39075 ft 456 kts 46°
2026-05-07 16:15 53.43957 7.22280 39075 ft 457 kts 46°
2026-05-07 16:16 53.48375 7.29945 39072 ft 456 kts 46°
2026-05-07 16:16 53.52706 7.37485 39078 ft 456 kts 46°
2026-05-07 16:17 53.55629 7.42585 39078 ft 456 kts 46°
2026-05-07 16:17 53.59239 7.48901 39078 ft 456 kts 46°
2026-05-07 16:18 53.63640 7.56623 39075 ft 456 kts 46°
2026-05-07 16:18 53.68027 7.64344 39075 ft 456 kts 46°
2026-05-07 16:19 53.72419 7.72099 39079 ft 456 kts 46°
2026-05-07 16:19 53.76800 7.79862 39082 ft 456 kts 46°
2026-05-07 16:20 53.81142 7.87577 39080 ft 455 kts 46°
2026-05-07 16:20 53.85515 7.95375 39091 ft 457 kts 46°
2026-05-07 16:21 53.89891 8.03203 39096 ft 457 kts 46°
2026-05-07 16:21 53.94257 8.11037 39096 ft 457 kts 46°
2026-05-07 16:22 53.98620 8.18894 39103 ft 457 kts 46°
2026-05-07 16:22 54.02970 8.26752 39090 ft 456 kts 46°
2026-05-07 16:23 54.07306 8.34610 39096 ft 456 kts 47°
2026-05-07 16:23 54.11643 8.42495 39095 ft 456 kts 47°
2026-05-07 16:24 54.15977 8.50401 39087 ft 456 kts 47°
2026-05-07 16:24 54.20299 8.58313 39097 ft 456 kts 47°
2026-05-07 16:25 54.24615 8.66238 39096 ft 455 kts 47°
2026-05-07 16:25 54.28893 8.74120 39097 ft 455 kts 47°
2026-05-07 16:26 54.33192 8.82065 39094 ft 455 kts 47°
2026-05-07 16:26 54.37486 8.90029 39094 ft 455 kts 47°
2026-05-07 16:27 54.41777 8.98014 39097 ft 455 kts 47°
2026-05-07 16:27 54.46058 9.06004 39099 ft 454 kts 47°
2026-05-07 16:28 54.50335 9.14017 39098 ft 454 kts 47°
2026-05-07 16:28 54.54601 9.22033 39099 ft 456 kts 47°
2026-05-07 16:29 54.58885 9.30112 39103 ft 457 kts 47°
2026-05-07 16:29 54.63171 9.38221 39102 ft 457 kts 47°
2026-05-07 16:30 54.67414 9.46276 39103 ft 456 kts 47°
2026-05-07 16:30 54.71677 9.54395 39104 ft 455 kts 47°
2026-05-07 16:31 54.75930 9.62523 39107 ft 455 kts 48°
2026-05-07 16:31 54.80178 9.70669 39111 ft 455 kts 48°
2026-05-07 16:32 54.84475 9.78738 39127 ft 455 kts 46°
2026-05-07 16:32 54.88158 9.85264 39132 ft 456 kts 45°
2026-05-07 16:33 54.92624 9.93087 39130 ft 456 kts 45°
2026-05-07 16:33 54.97081 10.00956 39128 ft 456 kts 45°
2026-05-07 16:34 55.01513 10.08850 39125 ft 456 kts 45°
2026-05-07 16:34 55.05945 10.16785 39122 ft 456 kts 45°
2026-05-07 16:35 55.10368 10.24731 39122 ft 456 kts 45°
2026-05-07 16:35 55.14776 10.32677 39120 ft 455 kts 46°
2026-05-07 16:36 55.19179 10.40637 39116 ft 455 kts 46°
2026-05-07 16:36 55.23490 10.48459 39120 ft 455 kts 46°
2026-05-07 16:37 55.27884 10.56457 39122 ft 455 kts 46°
2026-05-07 16:37 55.32270 10.64467 39130 ft 455 kts 46°
2026-05-07 16:38 55.36653 10.72499 39121 ft 455 kts 46°
2026-05-07 16:38 55.41027 10.80545 39122 ft 455 kts 46°
2026-05-07 16:39 55.45404 10.88621 39118 ft 455 kts 46°
2026-05-07 16:39 55.49771 10.96707 39118 ft 455 kts 46°
2026-05-07 16:40 55.54131 11.04809 39116 ft 455 kts 46°
2026-05-07 16:40 55.58492 11.12939 39117 ft 455 kts 46°
2026-05-07 16:41 55.62838 11.21071 39120 ft 455 kts 46°
2026-05-07 16:41 55.67159 11.29183 39115 ft 456 kts 46°
2026-05-07 16:42 55.71505 11.37371 39119 ft 456 kts 46°
2026-05-07 16:42 55.75843 11.45572 39117 ft 456 kts 46°
2026-05-07 16:43 55.80177 11.53792 39118 ft 456 kts 46°
2026-05-07 16:43 55.84509 11.62039 39123 ft 456 kts 46°
2026-05-07 16:44 55.88744 11.70129 39118 ft 456 kts 46°
2026-05-07 16:44 55.90651 11.73782 39128 ft 456 kts 47°
2026-05-07 16:45 55.94983 11.82100 39126 ft 456 kts 47°
2026-05-07 16:45 55.99298 11.90414 39124 ft 456 kts 47°
2026-05-07 16:46 56.03604 11.98739 39125 ft 456 kts 46°
2026-05-07 16:46 56.07808 12.06897 39123 ft 457 kts 47°
2026-05-07 16:47 56.12111 12.15275 39130 ft 457 kts 47°
2026-05-07 16:47 56.16412 12.23680 39126 ft 457 kts 47°
2026-05-07 16:48 56.20682 12.32053 39126 ft 457 kts 47°
2026-05-07 16:48 56.24970 12.40493 39129 ft 457 kts 47°
2026-05-07 16:49 56.29249 12.48944 39109 ft 457 kts 47°
2026-05-07 16:49 56.33534 12.57437 39110 ft 457 kts 47°
2026-05-07 16:50 56.37803 12.65930 39108 ft 457 kts 47°
2026-05-07 16:50 56.42068 12.74445 39103 ft 457 kts 47°
2026-05-07 16:51 56.46340 12.83005 39114 ft 458 kts 47°
2026-05-07 16:51 56.49887 12.90137 39107 ft 459 kts 47°
2026-05-07 16:52 56.50349 12.91067 39114 ft 459 kts 47°
2026-05-07 16:52 56.54551 12.99547 39109 ft 459 kts 47°
2026-05-07 16:53 56.58784 13.08118 39110 ft 459 kts 47°
2026-05-07 16:53 56.63038 13.16765 39104 ft 459 kts 47°
2026-05-07 16:54 56.67285 13.25430 39109 ft 459 kts 47°
2026-05-07 16:54 56.71524 13.34110 39110 ft 459 kts 47°
2026-05-07 16:55 56.75762 13.42819 39102 ft 458 kts 47°
2026-05-07 16:55 56.79988 13.51535 39097 ft 458 kts 47°
2026-05-07 16:56 56.84205 13.60268 39101 ft 459 kts 48°
2026-05-07 16:56 56.90549 13.73463 39094 ft 461 kts 47°
2026-05-07 16:57 56.94774 13.82292 39077 ft 460 kts 47°
2026-05-07 16:57 56.98987 13.91128 39079 ft 460 kts 47°
2026-05-07 16:58 57.03166 13.99927 39086 ft 460 kts 48°
2026-05-07 16:58 57.07370 14.08810 39058 ft 460 kts 48°
2026-05-07 16:59 57.11564 14.17707 39055 ft 460 kts 48°
2026-05-07 16:59 57.15756 14.26630 39056 ft 460 kts 47°
2026-05-07 17:00 57.19943 14.35581 39054 ft 460 kts 47°
2026-05-07 17:00 57.24147 14.44601 39060 ft 469 kts 48°
2026-05-07 17:01 57.28434 14.53831 39062 ft 477 kts 48°
2026-05-07 17:01 57.32816 14.63022 39065 ft 475 kts 46°
2026-05-07 17:02 57.37276 14.72049 39071 ft 475 kts 45°
2026-05-07 17:02 57.41700 14.81047 39072 ft 475 kts 46°
2026-05-07 17:03 57.46131 14.90156 39074 ft 475 kts 46°
2026-05-07 17:03 57.50551 14.99312 39079 ft 475 kts 46°
2026-05-07 17:04 57.54955 15.08475 39076 ft 475 kts 46°
2026-05-07 17:04 57.59356 15.17667 39085 ft 476 kts 46°
2026-05-07 17:05 57.63759 15.26897 39075 ft 477 kts 47°
2026-05-07 17:05 57.68172 15.36183 39085 ft 478 kts 47°
2026-05-07 17:06 57.72579 15.45491 39091 ft 478 kts 47°
2026-05-07 17:06 57.76979 15.54823 39096 ft 478 kts 47°
2026-05-07 17:07 57.81341 15.64117 39097 ft 478 kts 47°
2026-05-07 17:07 57.85724 15.73489 39098 ft 478 kts 47°
2026-05-07 17:08 57.90109 15.82902 39105 ft 478 kts 47°
2026-05-07 17:08 57.94482 15.92330 39105 ft 478 kts 47°
2026-05-07 17:09 57.98847 16.01775 39105 ft 478 kts 47°
2026-05-07 17:09 58.03111 16.11041 38956 ft 478 kts 47°
2026-05-07 17:10 58.05292 16.15793 38729 ft 479 kts 47°
2026-05-07 17:10 58.07074 16.19684 38504 ft 479 kts 47°
2026-05-07 17:10 58.08519 16.22844 38315 ft 479 kts 47°
2026-05-07 17:10 58.10415 16.26997 38068 ft 479 kts 47°
2026-05-07 17:11 58.12562 16.31709 37796 ft 478 kts 47°
2026-05-07 17:11 58.14726 16.36467 37536 ft 477 kts 47°
2026-05-07 17:11 58.16887 16.41228 37258 ft 476 kts 47°
2026-05-07 17:11 58.19044 16.45990 36994 ft 475 kts 47°
2026-05-07 17:12 58.21195 16.50747 36740 ft 475 kts 47°
2026-05-07 17:12 58.23341 16.55505 36482 ft 474 kts 46°
2026-05-07 17:12 58.25482 16.60263 36239 ft 474 kts 46°
2026-05-07 17:12 58.27635 16.65050 35669 ft 481 kts 46°
2026-05-07 17:13 58.29817 16.69913 34887 ft 485 kts 46°
2026-05-07 17:13 58.31995 16.74783 34380 ft 481 kts 45°
2026-05-07 17:13 58.34156 16.79626 33782 ft 477 kts 45°
2026-05-07 17:13 58.36285 16.84409 32894 ft 471 kts 45°
2026-05-07 17:14 58.38368 16.89095 31846 ft 468 kts 46°
2026-05-07 17:14 58.40470 16.93829 30792 ft 467 kts 46°
2026-05-07 17:14 58.42566 16.98558 29700 ft 465 kts 46°
2026-05-07 17:14 58.44638 17.03248 29056 ft 460 kts 46°
2026-05-07 17:15 58.46701 17.07925 28478 ft 460 kts 46°
2026-05-07 17:15 58.48801 17.12682 27802 ft 476 kts 46°
2026-05-07 17:15 58.50944 17.17554 27092 ft 479 kts 46°
2026-05-07 17:15 58.53082 17.22434 26391 ft 476 kts 46°
2026-05-07 17:16 58.55285 17.27111 25693 ft 469 kts 40°
2026-05-07 17:16 58.57771 17.31035 25029 ft 459 kts 30°
2026-05-07 17:16 58.60503 17.34066 24684 ft 447 kts 22°
2026-05-07 17:16 58.63275 17.36721 24445 ft 446 kts 21°
2026-05-07 17:17 58.66082 17.39309 24209 ft 445 kts 21°
2026-05-07 17:17 58.68879 17.41860 23970 ft 444 kts 20°
2026-05-07 17:17 58.71632 17.44365 23759 ft 443 kts 20°
2026-05-07 17:17 58.74420 17.46900 23505 ft 443 kts 20°
2026-05-07 17:18 58.77205 17.49436 23217 ft 442 kts 20°
2026-05-07 17:18 58.79980 17.51965 22935 ft 440 kts 20°
2026-05-07 17:18 58.82748 17.54493 22661 ft 438 kts 20°
2026-05-07 17:18 58.85501 17.57011 22386 ft 436 kts 20°
2026-05-07 17:19 58.88234 17.59514 22113 ft 435 kts 20°
2026-05-07 17:19 58.90969 17.62024 21844 ft 433 kts 20°
2026-05-07 17:19 58.93686 17.64522 21580 ft 431 kts 20°
2026-05-07 17:19 58.96390 17.67012 21329 ft 430 kts 21°
2026-05-07 17:20 58.99083 17.69496 21083 ft 429 kts 20°
2026-05-07 17:20 59.01742 17.71947 20838 ft 428 kts 20°
2026-05-07 17:20 59.04431 17.74425 20583 ft 427 kts 20°
2026-05-07 17:20 59.07117 17.76897 20326 ft 426 kts 20°
2026-05-07 17:21 59.09820 17.79386 20073 ft 424 kts 20°
2026-05-07 17:21 59.12451 17.81806 19831 ft 422 kts 20°
2026-05-07 17:21 59.15103 17.84241 19560 ft 421 kts 20°
2026-05-07 17:21 59.17746 17.86670 19147 ft 417 kts 20°
2026-05-07 17:22 59.20361 17.89071 18660 ft 415 kts 20°
2026-05-07 17:22 59.22959 17.91452 18174 ft 408 kts 20°
2026-05-07 17:22 59.25470 17.93792 17504 ft 392 kts 20°
2026-05-07 17:22 59.27904 17.96065 16552 ft 386 kts 20°
2026-05-07 17:23 59.29492 17.97538 15933 ft 381 kts 20°
2026-05-07 17:23 59.31879 17.99734 15018 ft 375 kts 20°
2026-05-07 17:23 59.34220 18.01864 14131 ft 369 kts 20°
2026-05-07 17:23 59.36513 18.03933 13357 ft 358 kts 20°
2026-05-07 17:24 59.38771 18.05964 12634 ft 347 kts 20°
2026-05-07 17:24 59.40927 18.07905 11947 ft 337 kts 20°
2026-05-07 17:24 59.43002 18.09769 11303 ft 327 kts 20°
2026-05-07 17:24 59.45035 18.11594 10709 ft 317 kts 20°
2026-05-07 17:25 59.47001 18.13357 10144 ft 308 kts 20°
2026-05-07 17:25 59.48953 18.14901 9538 ft 297 kts 13°
2026-05-07 17:25 59.50924 18.15823 8918 ft 287 kts
2026-05-07 17:25 59.52858 18.16547 8358 ft 279 kts
2026-05-07 17:26 59.54728 18.17210 7805 ft 272 kts
2026-05-07 17:26 59.56582 18.17841 7313 ft 269 kts
2026-05-07 17:26 59.58426 18.18448 7124 ft 267 kts
2026-05-07 17:26 59.60207 18.19034 7114 ft 250 kts
2026-05-07 17:27 59.61869 18.19587 7124 ft 237 kts
2026-05-07 17:27 59.63480 18.20129 7126 ft 234 kts
2026-05-07 17:27 59.65088 18.20668 7132 ft 235 kts
2026-05-07 17:27 59.66700 18.21213 7124 ft 235 kts
2026-05-07 17:28 59.68313 18.21755 7034 ft 236 kts
2026-05-07 17:28 59.69930 18.22296 6764 ft 235 kts
2026-05-07 17:28 59.71537 18.22829 6485 ft 233 kts
2026-05-07 17:28 59.73136 18.23307 6180 ft 232 kts
2026-05-07 17:29 59.74707 18.22791 5841 ft 230 kts 335°
2026-05-07 17:29 59.76026 18.21050 5482 ft 229 kts 320°
2026-05-07 17:29 59.77220 18.18967 5111 ft 229 kts 318°
2026-05-07 17:29 59.78395 18.16836 4744 ft 228 kts 317°
2026-05-07 17:30 59.79568 18.14707 4330 ft 229 kts 317°
2026-05-07 17:30 59.80755 18.12548 3714 ft 235 kts 317°
2026-05-07 17:30 59.81800 18.10026 3073 ft 240 kts 295°
2026-05-07 17:30 59.82072 18.06798 2630 ft 237 kts 262°
2026-05-07 17:31 59.81467 18.03976 2505 ft 218 kts 229°
2026-05-07 17:31 59.80422 18.01948 2525 ft 206 kts 219°
2026-05-07 17:31 59.79215 18.00528 2546 ft 201 kts 198°
2026-05-07 17:31 59.77851 17.99873 2532 ft 203 kts 190°
2026-05-07 17:32 59.76456 17.99431 2529 ft 201 kts 185°
2026-05-07 17:32 59.75061 17.99240 2531 ft 200 kts 183°
2026-05-07 17:32 59.73666 17.99060 2425 ft 200 kts 186°
2026-05-07 17:32 59.72303 17.98604 1922 ft 196 kts 190°
2026-05-07 17:33 59.70990 17.98117 1304 ft 188 kts 189°
2026-05-07 17:33 59.69757 17.97647 892 ft 171 kts 191°
2026-05-07 17:33 59.68673 17.97250 847 ft 152 kts 186°
2026-05-07 17:33 59.67643 17.96898 735 ft 147 kts 187°
2026-05-07 17:34 59.66649 17.96534 586 ft 145 kts 187°
2026-05-07 17:34 59.65653 17.96172 361 ft 145 kts 187°
2026-05-07 17:34 59.64662 17.95805 169 ft 143 kts 186°
2026-05-07 17:34 59.63783 17.95494 150 ft 102 kts 190°
2026-05-07 17:35 59.63416 17.95298 145 ft 26 kts 211°
2026-05-07 17:35 59.63320 17.95176 142 ft 16 kts 218°
2026-05-07 17:35 59.63268 17.95085 141 ft 10 kts 221°
2026-05-07 17:35 59.63243 17.94982 141 ft 8 kts 263°
2026-05-07 17:36 59.63243 17.94959 141 ft 1 kts 275°
2026-05-07 17:36 59.63244 17.94937 141 ft 2 kts 279°
2026-05-07 17:36 59.63263 17.94905 141 ft 6 kts 337°
2026-05-07 17:36 59.63326 17.94916 141 ft 13 kts 11°
2026-05-07 17:37 59.63436 17.94953 141 ft 19 kts
2026-05-07 17:37 59.63586 17.95004 141 ft 22 kts 17°
2026-05-07 17:37 59.63698 17.95061 141 ft 19 kts 12°
2026-05-07 17:37 59.63833 17.95102 141 ft 17 kts 10°
2026-05-07 17:38 59.63933 17.95139 141 ft 16 kts 12°
2026-05-07 17:38 59.64066 17.95183 141 ft 22 kts 13°
2026-05-07 17:38 59.64236 17.95249 141 ft 24 kts
2026-05-07 17:38 59.64404 17.95314 141 ft 28 kts 13°
2026-05-07 17:39 59.64581 17.95375 141 ft 24 kts
2026-05-07 17:39 59.64767 17.95442 141 ft 30 kts 11°
2026-05-07 17:39 59.64923 17.95498 141 ft 14 kts
2026-05-07 17:39 59.65040 17.95507 141 ft 20 kts 352°
2026-05-07 17:40 59.65199 17.95432 141 ft 26 kts 345°
2026-05-07 17:40 59.65375 17.95344 141 ft 26 kts 344°
2026-05-07 17:40 59.65549 17.95254 141 ft 27 kts 344°
2026-05-07 17:40 59.65688 17.95175 141 ft 20 kts 342°
2026-05-07 17:41 59.65738 17.94936 141 ft 17 kts 258°
2026-05-07 17:41 59.65717 17.94755 141 ft 17 kts 256°
2026-05-07 17:41 59.65682 17.94484 141 ft 24 kts 256°
2026-05-07 17:41 59.65643 17.94169 141 ft 21 kts 252°
2026-05-07 17:42 59.65612 17.93932 141 ft 19 kts 255°
2026-05-07 17:42 59.65576 17.93662 141 ft 21 kts 257°
2026-05-07 17:42 59.65534 17.93388 141 ft 20 kts 231°
2026-05-07 17:42 59.65428 17.93351 141 ft 15 kts 166°
2026-05-07 17:43 59.65333 17.93398 141 ft 9 kts 165°
2026-05-07 17:43 59.65280 17.93427 141 ft 7 kts 160°
2026-05-07 17:43 59.65275 17.93521 141 ft 4 kts 77°
2026-05-07 17:43 59.65281 17.93582 141 ft 1 kts 79°
2026-05-07 17:44 59.65283 17.93603 141 ft 0 kts 79°